Darbhanga Airport

Jump to: basic info | weather | runways | comments

Related pages: nearby airports | nearby navaids | notams | map

Basic information (top)

Codes: VE89
Location: lon 26.192801, lat 85.916901, elev 156 ft / 48 m msl
Status: small_airport

Weather (top)

Current conditions for Lok Nayak Jayaprakash Airport 58nm (107km) SW (rec'd 2014/11/22 08:50Z):

VEPT 220850Z 28003KT 2500 HZ NSC 27/14 Q1010 NOSIG

Airport forecast for Lok Nayak Jayaprakash Airport 58nm (107km) SW (rec'd 2014/11/18 18:00Z):

TAF VEPT 181500Z 1818/1924 00000KT 2000 HZ/BR/FU NSC 
      BECMG 1822/1824 1500 BR 
      BECMG 1901/1903 1000 MIFG/BR 
      BECMG 1905/1907 28003KT 1500 BR NSC 
      BECMG 1907/1909 26004KT 2500 HZ 
      BECMG 1913/1915 00000KT 1800 BR/FU 
      BECMG 1920/1922 1500 BR/FU

Runways (top)

10/28: 9,000 x 150 ft (2,743 x 46 m) — paved — not lighted

Latest comments (top)

Requested all the concern person to start Darbhanga Airport: Dear Sir, as you know most of the ... [read]

Darbhanga Airport: Dear Sir, Kindly requested to Please, ... [read]

START DARBHANGA AIR PORT: I REQUESTE TO CENTRAL AND BIHAR ... [read]

Please apeel to start the airport: Dear Kindly Request PM TO Start The ... [read]

airline service: Please please start airline services ... [read]

See all 23 comments for Darbhanga Airport

More... (top)

See also NOTAMs and nearby airports and navaids, or visit the Darbhanga Airport page at the main OurAirports website..